• In Moldova, Republic
  • List of Countries
  • For 7 days
  • Water Temperature
  • Satellite Maps
  • Weather Map
  • Weather Widgets
  • user-avatar
    Login

    Hourly Weather Ganja

    Today, 27 February, Monday

    Time Temperature Precipitation Wind Pressure Humidity
    00:00 +3°C° 0 mm 3 mps 731 mmHg 75%
    01:00 +3°C° 0 mm 3 mps 731 mmHg 75%
    02:00 +2°C° 0 mm 3 mps 731 mmHg 75%
    03:00 0°C° 0 mm 4 mps 731 mmHg 74%
    04:00 0°C° 0 mm 4 mps 731 mmHg 74%
    05:00 -1°C° 0 mm 4 mps 731 mmHg 73%
    06:00 0°C° 0 mm 3 mps 731 mmHg 73%
    07:00 +1°C° 0 mm 3 mps 732 mmHg 70%
    08:00 +2°C° 0 mm 3 mps 732 mmHg 68%
    09:00 +4°C° 0 mm 2 mps 732 mmHg 65%
    10:00 +5°C° 0 mm 2 mps 731 mmHg 63%
    11:00 +6°C° 0 mm 2 mps 731 mmHg 62%
    12:00 +8°C° 0 mm 1 mps 730 mmHg 60%
    13:00 +8°C° 0 mm 1 mps 730 mmHg 60%
    14:00 +9°C° 0 mm 1 mps 729 mmHg 59%
    15:00 +9°C° 0 mm 1 mps 729 mmHg 59%
    16:00 +8°C° 0 mm 1 mps 728 mmHg 63%
    17:00 +7°C° 0 mm 1 mps 728 mmHg 67%
    18:00 +4°C° 0 mm 0 mps 728 mmHg 71%
    19:00 +4°C° 0 mm 0 mps 728 mmHg 72%
    20:00 +4°C° 0 mm 0 mps 729 mmHg 73%
    21:00 +3°C° 0 mm 0 mps 729 mmHg 74%
    22:00 +3°C° 0 mm 0 mps 729 mmHg 74%
    23:00 +4°C° 0 mm 1 mps 729 mmHg 74%

    Tomorrow, 28 February, Tuesday

    Time Temperature Precipitation Wind Pressure Humidity
    00:00 +4°C° 0 mm 1 mps 729 mmHg 74%
    01:00 +4°C° 0 mm 1 mps 729 mmHg 74%
    02:00 +4°C° 0 mm 1 mps 729 mmHg 74%
    03:00 +3°C° 0 mm 2 mps 729 mmHg 74%
    04:00 +3°C° 0 mm 2 mps 729 mmHg 74%
    05:00 +3°C° 0 mm 2 mps 729 mmHg 75%
    06:00 +2°C° 0 mm 2 mps 729 mmHg 75%
    07:00 +5°C° 0 mm 1 mps 729 mmHg 70%
    08:00 +7°C° 0 mm 1 mps 729 mmHg 64%
    09:00 +9°C° 0 mm 1 mps 730 mmHg 59%
    10:00 +10°C° 0 mm 1 mps 730 mmHg 57%
    11:00 +12°C° 0 mm 1 mps 730 mmHg 54%
    12:00 +13°C° 0 mm 1 mps 729 mmHg 52%
    13:00 +13°C° 0 mm 1 mps 729 mmHg 52%
    14:00 +13°C° 0 mm 1 mps 729 mmHg 52%
    15:00 +14°C° 0 mm 1 mps 729 mmHg 52%
    16:00 +12°C° 0 mm 1 mps 729 mmHg 57%
    17:00 +10°C° 0 mm 1 mps 729 mmHg 62%
    18:00 +8°C° 0 mm 2 mps 730 mmHg 67%
    19:00 +7°C° 0 mm 2 mps 730 mmHg 69%
    20:00 +7°C° 0 mm 2 mps 730 mmHg 71%
    21:00 +6°C° 0 mm 2 mps 731 mmHg 73%
    22:00 +7°C° 0 mm 1 mps 731 mmHg 75%
    23:00 +6°C° 0 mm 1 mps 731 mmHg 76%

    Day after tomorrow, 1 March, Wednesday

    Time Temperature Precipitation Wind Pressure Humidity
    00:00 +6°C° 0 mm 1 mps 731 mmHg 77%
    01:00 +6°C° 0 mm 1 mps 731 mmHg 79%
    02:00 +5°C° 0 mm 1 mps 731 mmHg 81%
    03:00 +5°C° 0 mm 1 mps 731 mmHg 82%
    04:00 +5°C° 0 mm 1 mps 731 mmHg 83%
    05:00 +4°C° 0 mm 1 mps 731 mmHg 84%
    06:00 +3°C° 0 mm 0 mps 731 mmHg 85%
    07:00 +5°C° 0 mm 0 mps 731 mmHg 78%
    08:00 +7°C° 0 mm 0 mps 731 mmHg 71%
    09:00 +10°C° 0 mm 1 mps 732 mmHg 63%
    10:00 +11°C° 0 mm 1 mps 731 mmHg 61%
    11:00 +12°C° 0 mm 1 mps 731 mmHg 58%
    12:00 +13°C° 0 mm 1 mps 730 mmHg 55%
    13:00 +14°C° 0 mm 1 mps 730 mmHg 55%
    14:00 +14°C° 0 mm 2 mps 729 mmHg 56%
    15:00 +14°C° 0 mm 2 mps 729 mmHg 56%
    16:00 +13°C° 0 mm 1 mps 729 mmHg 62%
    17:00 +11°C° 0 mm 1 mps 729 mmHg 69%
    18:00 +9°C° 0 mm 1 mps 729 mmHg 75%
    19:00 +9°C° 0 mm 1 mps 729 mmHg 77%
    20:00 +8°C° 0 mm 1 mps 729 mmHg 79%
    21:00 +8°C° 0 mm 1 mps 730 mmHg 81%
    22:00 +7°C° 0 mm 1 mps 729 mmHg 83%
    23:00 +7°C° 0 mm 1 mps 729 mmHg 84%

    2 March, Thursday

    Time Temperature Precipitation Wind Pressure Humidity
    00:00 +7°C° 0 mm 1 mps 729 mmHg 85%
    01:00 +6°C° 0 mm 1 mps 729 mmHg 86%
    02:00 +5°C° 0 mm 0 mps 728 mmHg 88%
    03:00 +4°C° 0 mm 0 mps 728 mmHg 89%
    04:00 +4°C° 0 mm 0 mps 728 mmHg 88%
    05:00 +4°C° 0 mm 0 mps 728 mmHg 88%
    06:00 +4°C° 0 mm 0 mps 728 mmHg 87%
    07:00 +6°C° 0 mm 0 mps 728 mmHg 81%
    08:00 +8°C° 0 mm 0 mps 728 mmHg 74%
    09:00 +10°C° 0 mm 0 mps 728 mmHg 67%
    10:00 +12°C° 0 mm 1 mps 727 mmHg 64%
    11:00 +13°C° 0 mm 1 mps 726 mmHg 60%
    12:00 +14°C° 0 mm 2 mps 726 mmHg 57%
    13:00 +14°C° 0 mm 2 mps 725 mmHg 57%
    14:00 +14°C° 0 mm 2 mps 725 mmHg 57%
    15:00 +15°C° 0 mm 2 mps 724 mmHg 57%
    16:00 +13°C° 0 mm 2 mps 725 mmHg 62%
    17:00 +12°C° 0 mm 2 mps 725 mmHg 68%
    18:00 +9°C° 0 mm 2 mps 725 mmHg 74%
    19:00 +10°C° 0 mm 1 mps 725 mmHg 75%
    20:00 +10°C° 0 mm 1 mps 725 mmHg 76%
    21:00 +9°C° 0 mm 1 mps 725 mmHg 77%
    22:00 +9°C° 0.1 mm 1 mps 725 mmHg 78%
    23:00 +9°C° 0.1 mm 1 mps 725 mmHg 79%

    3 March, Friday

    Time Temperature Precipitation Wind Pressure Humidity
    00:00 +9°C° 0.1 mm 1 mps 725 mmHg 79%
    01:00 +8°C° 0.1 mm 1 mps 724 mmHg 81%
    02:00 +7°C° 0.1 mm 0 mps 724 mmHg 82%
    03:00 +7°C° 0.1 mm 0 mps 724 mmHg 83%
    04:00 +8°C° 0 mm 1 mps 724 mmHg 83%
    05:00 +8°C° 0 mm 1 mps 724 mmHg 83%
    06:00 +7°C° 0 mm 1 mps 724 mmHg 83%
    07:00 +9°C° 0 mm 1 mps 724 mmHg 78%
    08:00 +10°C° 0 mm 1 mps 724 mmHg 72%
    09:00 +12°C° 0 mm 1 mps 724 mmHg 66%
    10:00 +13°C° 0.1 mm 1 mps 723 mmHg 63%
    11:00 +13°C° 0.1 mm 1 mps 723 mmHg 60%
    12:00 +14°C° 0.1 mm 1 mps 723 mmHg 56%
    13:00 +15°C° 0.1 mm 1 mps 723 mmHg 56%
    14:00 +15°C° 0.1 mm 1 mps 723 mmHg 56%
    15:00 +15°C° 0.1 mm 1 mps 722 mmHg 56%
    16:00 +14°C° 0 mm 1 mps 723 mmHg 61%
    17:00 +12°C° 0 mm 1 mps 723 mmHg 66%
    18:00 +10°C° 0 mm 0 mps 723 mmHg 71%
    19:00 +10°C° 0 mm 0 mps 723 mmHg 72%
    20:00 +9°C° 0 mm 0 mps 724 mmHg 73%
    21:00 +9°C° 0 mm 0 mps 724 mmHg 74%
    22:00 +9°C° 0 mm 0 mps 724 mmHg 74%
    23:00 +10°C° 0 mm 1 mps 724 mmHg 74%

    4 March, Saturday

    Time Temperature Precipitation Wind Pressure Humidity
    00:00 +9°C° 0 mm 1 mps 724 mmHg 74%
    01:00 +9°C° 0 mm 1 mps 725 mmHg 74%
    02:00 +8°C° 0 mm 2 mps 725 mmHg 74%
    03:00 +8°C° 0 mm 2 mps 725 mmHg 75%
    04:00 +7°C° 0 mm 2 mps 725 mmHg 75%
    05:00 +7°C° 0 mm 2 mps 725 mmHg 76%
    06:00 +7°C° 0 mm 2 mps 725 mmHg 77%
    07:00 +8°C° 0 mm 2 mps 726 mmHg 72%
    08:00 +10°C° 0 mm 2 mps 726 mmHg 67%
    09:00 +12°C° 0 mm 2 mps 727 mmHg 62%
    10:00 +13°C° 0 mm 2 mps 726 mmHg 59%
    11:00 +14°C° 0 mm 2 mps 726 mmHg 57%
    12:00 +14°C° 0 mm 3 mps 726 mmHg 54%
    13:00 +15°C° 0 mm 2 mps 726 mmHg 54%
    14:00 +15°C° 0 mm 2 mps 726 mmHg 54%
    15:00 +15°C° 0 mm 2 mps 726 mmHg 54%
    16:00 +14°C° 0.1 mm 1 mps 726 mmHg 59%
    17:00 +13°C° 0.1 mm 1 mps 726 mmHg 64%
    18:00 +10°C° 0.1 mm 0 mps 726 mmHg 68%
    19:00 +11°C° 0.2 mm 1 mps 727 mmHg 69%
    20:00 +11°C° 0.2 mm 1 mps 727 mmHg 69%
    21:00 +11°C° 0.2 mm 1 mps 728 mmHg 69%
    22:00 +10°C° 0.6 mm 1 mps 728 mmHg 72%
    23:00 +10°C° 0.6 mm 1 mps 728 mmHg 75%
    Show more